Weather History for Sheboygan, WI

Change the Weather History Date:

Thursday, October 25, 2012

  Actual Average Record
Temperature  
Mean Temperature 57 °F -  
Max Temperature 69 °F 55 °F 75 °F (1964)
Min Temperature 43 °F 40 °F 23 °F (2006)
Degree Days  
Heating Degree Days 8    
Growing Degree Days 7 (Base 50)    
Moisture  
Dew Point 53 °F    
Average Humidity 84    
Maximum Humidity 93    
Minimum Humidity 74    
Precipitation  
Precipitation 0.25 in - - ()
Sea Level Pressure  
Sea Level Pressure 29.72 in    
Wind  
Wind Speed 13 mph (SW)    
Max Wind Speed 21 mph    
Max Gust Speed 38 mph    
Visibility 8 miles    
Events Rain    
Averages and records for this station are not official NWS values.
T = Trace of Precipitation, MM = Missing Value Source: NWS Daily Summary

Daily Weather History Graph

Daily Weather History Graph

Search for Another Location

Airport:

Trip Planner

Search our weather history database for the weather conditions in past years. The results will help you decide how hot, cold, wet, or windy it might be!

Date:

Astronomy

Oct. 25, 2012 Rise Set
Actual Time 7:18 AM CDT 5:51 PM CDT
Civil Twilight 6:49 AM CDT 6:20 PM CDT
Nautical Twilight 6:15 AM CDT 6:54 PM CDT
Astronomical Twilight 5:42 AM CDT 7:27 PM CDT
Moon 3:43 PM CDT (10/25) 3:08 AM CDT (10/25)
Length of Visible Light 11h 31m
Length of Day
10h 32m
Waxing Gibbous, 84% of the Moon is Illuminated
Oct 25
Waxing Gibbous
Oct 29
Full
Nov 6
Last Quarter
Nov 13
New
Nov 20
First Quarter

Hourly Weather History & Observations

Time (CDT) Temp. Windchill Dew Point Humidity Pressure Visibility Wind Dir Wind Speed Gust Speed Precip Events Conditions
12:53 AM 63.0 °F - 60.1 °F 90% 29.78 in 5.0 mi South 8.1 mph - N/A   Scattered Clouds
1:53 AM 62.1 °F - 60.1 °F 93% 29.78 in 5.0 mi SSE 9.2 mph - N/A   Partly Cloudy
2:53 AM 61.0 °F - 59.0 °F 93% 29.76 in 4.0 mi SSE 10.4 mph - N/A   Scattered Clouds
3:53 AM 62.1 °F - 59.0 °F 90% 29.75 in 5.0 mi South 9.2 mph - N/A   Mostly Cloudy
4:53 AM 62.1 °F - 59.0 °F 90% 29.74 in 6.0 mi South 10.4 mph - N/A   Scattered Clouds
5:53 AM 61.0 °F - 57.9 °F 90% 29.72 in 6.0 mi South 6.9 mph - N/A   Partly Cloudy
6:53 AM 62.1 °F - 59.0 °F 90% 29.70 in 7.0 mi South 12.7 mph - N/A   Clear
7:53 AM 62.1 °F - 59.0 °F 90% 29.70 in 6.0 mi South 13.8 mph - N/A   Clear
8:53 AM 64.9 °F - 61.0 °F 87% 29.67 in 9.0 mi South 15.0 mph - N/A   Clear
9:51 AM 68.0 °F - 62.6 °F 83% 29.67 in 10.0 mi South 15.0 mph - N/A   Mostly Cloudy
9:53 AM 68.0 °F - 62.1 °F 81% 29.67 in 10.0 mi South 16.1 mph - N/A   Mostly Cloudy
10:53 AM 69.1 °F - 61.0 °F 75% 29.65 in 10.0 mi South 15.0 mph 24.2 mph N/A   Mostly Cloudy
11:53 AM 64.0 °F - 57.9 °F 80% 29.64 in 10.0 mi SSE 10.4 mph - N/A   Overcast
12:53 PM 66.9 °F - 59.0 °F 76% 29.60 in 10.0 mi SSE 11.5 mph - N/A   Overcast
1:53 PM 66.0 °F - 59.0 °F 78% 29.60 in 10.0 mi South 10.4 mph - N/A   Overcast
2:53 PM 66.9 °F - 60.1 °F 79% 29.58 in 10.0 mi South 17.3 mph 24.2 mph N/A   Overcast
3:53 PM 69.1 °F - 61.0 °F 75% 29.58 in 10.0 mi South 18.4 mph - N/A   Overcast
4:29 PM 69.8 °F - 62.6 °F 78% 29.57 in 10.0 mi South 18.4 mph - N/A   Overcast
4:53 PM 63.0 °F - 55.9 °F 78% 29.63 in 5.0 mi West 20.7 mph 38.0 mph 0.03 in Rain Light Rain
4:57 PM 57.2 °F - 53.6 °F 88% 29.63 in 2.5 mi West 13.8 mph 38.0 mph 0.05 in Rain Heavy Rain
5:03 PM 55.4 °F - 51.8 °F 88% 29.63 in 3.0 mi West 13.8 mph 25.3 mph 0.05 in Rain Light Rain
5:53 PM 53.1 °F - 48.0 °F 83% 29.69 in 10.0 mi WNW 16.1 mph 26.5 mph 0.05 in Rain Light Rain
6:53 PM 48.0 °F - 45.0 °F 89% 29.75 in 10.0 mi West 19.6 mph 28.8 mph 0.11 in Rain Light Rain
7:16 PM 46.4 °F 38.7 °F 42.8 °F 87% 29.76 in 9.0 mi West 20.7 mph 29.9 mph 0.01 in Rain Light Rain
7:24 PM 46.4 °F 39.2 °F 42.8 °F 87% 29.77 in 9.0 mi West 18.4 mph 31.1 mph 0.02 in Rain Rain
7:35 PM 46.4 °F 39.0 °F 42.8 °F 87% 29.78 in 9.0 mi WNW 19.6 mph 31.1 mph 0.03 in Rain Light Rain
7:53 PM 46.0 °F 38.5 °F 43.0 °F 89% 29.80 in 10.0 mi West 19.6 mph 25.3 mph 0.04 in Rain Light Rain
8:08 PM 46.4 °F 39.2 °F 42.8 °F 87% 29.79 in 10.0 mi West 18.4 mph 31.1 mph 0.01 in Rain Light Rain
8:53 PM 46.0 °F 39.6 °F 41.0 °F 83% 29.84 in 10.0 mi WNW 15.0 mph 23.0 mph 0.01 in   Overcast
9:53 PM 45.0 °F 37.9 °F 37.9 °F 76% 29.89 in 10.0 mi WNW 16.1 mph 32.2 mph N/A   Overcast
10:53 PM 45.0 °F 39.3 °F 37.0 °F 74% 29.95 in 10.0 mi WNW 11.5 mph 27.6 mph 0.01 in   Overcast
11:53 PM 43.0 °F 34.8 °F 35.1 °F 74% 30.01 in 10.0 mi WNW 18.4 mph 29.9 mph N/A   Overcast